• Em Portugal
  • Lista de países
  • Para 7 dias
  • Temperatura da água
  • Mapas de satélite
  • Mapa do tempo
  • Widgets de tempo
  • user-avatar
    Iniciar Sessão

    Previsão horária em Viedma

    Hoje, 21 Fevereiro, Quarta-feira

    Tempo Temperatura Precipitação Vento Pressão Humidade
    00:00 +19°C° 0 mm 4 m/s 760 mmHg 63%
    01:00 +18°C° 0 mm 3 m/s 760 mmHg 65%
    02:00 +18°C° 0 mm 3 m/s 760 mmHg 66%
    03:00 +18°C° 0 mm 4 m/s 760 mmHg 67%
    04:00 +17°C° 0 mm 4 m/s 759 mmHg 68%
    05:00 +17°C° 0 mm 4 m/s 759 mmHg 69%
    06:00 +17°C° 0 mm 5 m/s 759 mmHg 63%
    07:00 +20°C° 0 mm 5 m/s 759 mmHg 58%
    08:00 +21°C° 0 mm 6 m/s 760 mmHg 52%
    09:00 +23°C° 0 mm 6 m/s 759 mmHg 44%
    10:00 +26°C° 0 mm 6 m/s 759 mmHg 37%
    11:00 +27°C° 0 mm 7 m/s 759 mmHg 30%
    12:00 +29°C° 0 mm 7 m/s 758 mmHg 27%
    13:00 +30°C° 0 mm 7 m/s 758 mmHg 25%
    14:00 +32°C° 0 mm 7 m/s 757 mmHg 22%
    15:00 +30°C° 0 mm 7 m/s 756 mmHg 23%
    16:00 +30°C° 0 mm 7 m/s 755 mmHg 24%
    17:00 +30°C° 0 mm 7 m/s 755 mmHg 25%
    18:00 +28°C° 0 mm 8 m/s 755 mmHg 32%
    19:00 +26°C° 0 mm 9 m/s 755 mmHg 40%
    20:00 +23°C° 0 mm 10 m/s 755 mmHg 47%
    21:00 +23°C° 0 mm 9 m/s 755 mmHg 48%
    22:00 +23°C° 0 mm 8 m/s 755 mmHg 49%
    23:00 +23°C° 0 mm 7 m/s 755 mmHg 50%

    Amanhã, 22 Fevereiro, Quinta-feira

    Tempo Temperatura Precipitação Vento Pressão Humidade
    00:00 +23°C° 0 mm 6 m/s 756 mmHg 49%
    01:00 +23°C° 0 mm 6 m/s 756 mmHg 49%
    02:00 +23°C° 0 mm 6 m/s 756 mmHg 48%
    03:00 +23°C° 0 mm 6 m/s 756 mmHg 49%
    04:00 +22°C° 0 mm 7 m/s 756 mmHg 49%
    05:00 +22°C° 0 mm 8 m/s 756 mmHg 50%
    06:00 +22°C° 0 mm 8 m/s 757 mmHg 48%
    07:00 +22°C° 0 mm 9 m/s 758 mmHg 47%
    08:00 +23°C° 0 mm 10 m/s 759 mmHg 46%
    09:00 +23°C° 0 mm 9 m/s 759 mmHg 43%
    10:00 +24°C° 0 mm 9 m/s 760 mmHg 39%
    11:00 +26°C° 0 mm 8 m/s 760 mmHg 36%
    12:00 +26°C° 0 mm 9 m/s 760 mmHg 38%
    13:00 +24°C° 0 mm 9 m/s 761 mmHg 39%
    14:00 +24°C° 0 mm 9 m/s 761 mmHg 41%
    15:00 +23°C° 0 mm 9 m/s 761 mmHg 45%
    16:00 +22°C° 0 mm 9 m/s 761 mmHg 49%
    17:00 +21°C° 0 mm 8 m/s 761 mmHg 54%
    18:00 +21°C° 0 mm 8 m/s 761 mmHg 58%
    19:00 +20°C° 0 mm 8 m/s 761 mmHg 63%
    20:00 +18°C° 0 mm 7 m/s 762 mmHg 68%
    21:00 +18°C° 0 mm 7 m/s 762 mmHg 68%
    22:00 +17°C° 0 mm 6 m/s 762 mmHg 69%
    23:00 +17°C° 0 mm 6 m/s 762 mmHg 70%

    Depois de amanhã, 23 Fevereiro, Sexta-feira

    Tempo Temperatura Precipitação Vento Pressão Humidade
    00:00 +17°C° 0 mm 6 m/s 762 mmHg 71%
    01:00 +17°C° 0 mm 6 m/s 762 mmHg 71%
    02:00 +17°C° 0 mm 6 m/s 762 mmHg 72%
    03:00 +17°C° 0,1 mm 5 m/s 762 mmHg 72%
    04:00 +18°C° 0,1 mm 4 m/s 763 mmHg 72%
    05:00 +18°C° 0,1 mm 3 m/s 763 mmHg 73%
    06:00 +19°C° 0,1 mm 4 m/s 763 mmHg 72%
    07:00 +19°C° 0,1 mm 4 m/s 763 mmHg 71%
    08:00 +19°C° 0,1 mm 4 m/s 763 mmHg 70%
    09:00 +20°C° 0 mm 4 m/s 764 mmHg 65%
    10:00 +21°C° 0 mm 4 m/s 764 mmHg 61%
    11:00 +21°C° 0 mm 4 m/s 764 mmHg 57%
    12:00 +22°C° 0 mm 4 m/s 764 mmHg 56%
    13:00 +22°C° 0 mm 4 m/s 764 mmHg 55%
    14:00 +22°C° 0 mm 4 m/s 763 mmHg 53%
    15:00 +22°C° 0 mm 5 m/s 763 mmHg 55%
    16:00 +22°C° 0 mm 5 m/s 763 mmHg 56%
    17:00 +22°C° 0 mm 5 m/s 763 mmHg 58%
    18:00 +21°C° 0 mm 5 m/s 763 mmHg 62%
    19:00 +20°C° 0 mm 4 m/s 763 mmHg 66%
    20:00 +20°C° 0 mm 4 m/s 764 mmHg 71%
    21:00 +19°C° 0 mm 4 m/s 764 mmHg 73%
    22:00 +19°C° 0 mm 3 m/s 764 mmHg 76%
    23:00 +19°C° 0 mm 3 m/s 764 mmHg 78%

    24 Fevereiro, Sábado

    Tempo Temperatura Precipitação Vento Pressão Humidade
    00:00 +18°C° 0 mm 3 m/s 763 mmHg 80%
    01:00 +18°C° 0 mm 3 m/s 763 mmHg 81%
    02:00 +18°C° 0 mm 3 m/s 763 mmHg 83%
    03:00 +18°C° 0 mm 3 m/s 763 mmHg 84%
    04:00 +18°C° 0 mm 3 m/s 762 mmHg 84%
    05:00 +17°C° 0 mm 3 m/s 762 mmHg 85%
    06:00 +18°C° 0 mm 3 m/s 763 mmHg 79%
    07:00 +19°C° 0 mm 4 m/s 763 mmHg 73%
    08:00 +20°C° 0 mm 4 m/s 763 mmHg 68%
    09:00 +21°C° 0 mm 5 m/s 763 mmHg 64%
    10:00 +22°C° 0 mm 5 m/s 762 mmHg 60%
    11:00 +23°C° 0 mm 5 m/s 762 mmHg 56%
    12:00 +25°C° 0 mm 5 m/s 762 mmHg 56%
    13:00 +25°C° 0 mm 5 m/s 761 mmHg 55%
    14:00 +26°C° 0 mm 6 m/s 760 mmHg 54%
    15:00 +26°C° 0 mm 6 m/s 760 mmHg 55%
    16:00 +26°C° 0 mm 6 m/s 759 mmHg 55%
    17:00 +26°C° 0 mm 6 m/s 759 mmHg 55%
    18:00 +24°C° 0 mm 6 m/s 759 mmHg 61%
    19:00 +22°C° 0 mm 6 m/s 759 mmHg 67%
    20:00 +21°C° 0 mm 6 m/s 759 mmHg 73%
    21:00 +21°C° 0 mm 6 m/s 759 mmHg 76%
    22:00 +21°C° 0 mm 6 m/s 759 mmHg 78%
    23:00 +21°C° 0 mm 6 m/s 759 mmHg 81%

    25 Fevereiro, Domingo

    Tempo Temperatura Precipitação Vento Pressão Humidade
    00:00 +21°C° 0 mm 6 m/s 759 mmHg 82%
    01:00 +21°C° 0 mm 5 m/s 758 mmHg 84%
    02:00 +21°C° 0 mm 5 m/s 758 mmHg 86%
    03:00 +21°C° 0 mm 4 m/s 758 mmHg 87%
    04:00 +21°C° 0 mm 4 m/s 757 mmHg 89%
    05:00 +21°C° 0 mm 3 m/s 757 mmHg 90%
    06:00 +22°C° 0 mm 3 m/s 757 mmHg 84%
    07:00 +24°C° 0 mm 3 m/s 758 mmHg 78%
    08:00 +25°C° 0 mm 3 m/s 758 mmHg 71%
    09:00 +27°C° 0 mm 3 m/s 757 mmHg 61%
    10:00 +29°C° 0 mm 3 m/s 757 mmHg 51%
    11:00 +31°C° 0 mm 3 m/s 757 mmHg 40%
    12:00 +33°C° 0 mm 3 m/s 757 mmHg 39%
    13:00 +33°C° 0 mm 3 m/s 756 mmHg 37%
    14:00 +33°C° 0 mm 3 m/s 756 mmHg 36%
    15:00 +33°C° 0 mm 3 m/s 756 mmHg 37%
    16:00 +31°C° 0 mm 3 m/s 756 mmHg 38%
    17:00 +31°C° 0 mm 3 m/s 756 mmHg 38%
    18:00 +30°C° 0 mm 3 m/s 756 mmHg 43%
    19:00 +28°C° 0 mm 4 m/s 756 mmHg 47%
    20:00 +27°C° 0 mm 4 m/s 756 mmHg 52%
    21:00 +27°C° 0 mm 4 m/s 756 mmHg 53%
    22:00 +26°C° 0 mm 4 m/s 756 mmHg 54%
    23:00 +26°C° 0 mm 3 m/s 756 mmHg 56%

    26 Fevereiro, Segunda-feira

    Tempo Temperatura Precipitação Vento Pressão Humidade
    00:00 +26°C° 0 mm 3 m/s 756 mmHg 55%
    01:00 +26°C° 0 mm 4 m/s 756 mmHg 55%
    02:00 +26°C° 0 mm 4 m/s 755 mmHg 55%
    03:00 +26°C° 0 mm 4 m/s 755 mmHg 53%
    04:00 +26°C° 0 mm 4 m/s 755 mmHg 52%
    05:00 +26°C° 0 mm 4 m/s 755 mmHg 51%
    06:00 +27°C° 0 mm 5 m/s 755 mmHg 45%
    07:00 +28°C° 0 mm 5 m/s 755 mmHg 40%
    08:00 +29°C° 0 mm 6 m/s 756 mmHg 35%
    09:00 +32°C° 0 mm 6 m/s 755 mmHg 31%
    10:00 +34°C° 0 mm 5 m/s 755 mmHg 28%
    11:00 +36°C° 0 mm 5 m/s 755 mmHg 24%
    12:00 +36°C° 0 mm 5 m/s 755 mmHg 25%
    13:00 +35°C° 0 mm 4 m/s 754 mmHg 27%
    14:00 +35°C° 0 mm 4 m/s 754 mmHg 28%
    15:00 +34°C° 0,1 mm 4 m/s 754 mmHg 31%
    16:00 +33°C° 0,1 mm 4 m/s 754 mmHg 34%
    17:00 +30°C° 0,1 mm 3 m/s 753 mmHg 37%
    18:00 +30°C° 0,7 mm 3 m/s 754 mmHg 40%
    19:00 +29°C° 0,7 mm 3 m/s 754 mmHg 43%
    20:00 +28°C° 0,7 mm 3 m/s 754 mmHg 47%
    21:00 +28°C° 0,3 mm 2 m/s 754 mmHg 48%
    22:00 +27°C° 0,3 mm 2 m/s 754 mmHg 50%
    23:00 +27°C° 0,3 mm 2 m/s 754 mmHg 51%
    Mostrar mais